This demonstration page uses our WeatherBlox Daily Observations layout. Learn more.

Left ArrowRight Arrow

36.19886, -115.1175

Hourly Observations for July 15, 2021

Temp ( °F °C ) Dew Point ( °F °C ) Humidity (%) Winds ( mph kmh ) Pressure ( in mb ) Visibility ( mi km ) Precip ( " mm )
12:53 am 00:53 Clear 87 30.6 58 14.4 37 37 E 17 28 29.95 1014 10 16 0.00 0.00
1:46 am 01:46 Mostly Cloudy with Nearby Thunderstorms 84 28.9 63 17.2 49 49 NNE 13 20 29.87 1011 10 16 0.00 0.00
1:53 am 01:53 Mostly Cloudy with Nearby Thunderstorms 83 28.3 64 17.8 53 53 ENE 9 15 29.96 1015 10 16 0.00 0.00
2:06 am 02:06 Partly Cloudy with Thunderstorms 83 28.3 63 17.2 51 51 E 13 20 29.85 1011 10 16 0.00 0.00
2:21 am 02:21 Mostly Clear 82 27.8 63 17.2 53 53 ESE 10 17 29.86 1011 10 16 0.00 0.00
2:53 am 02:53 Clear 82 27.8 63 17.2 53 53 SE 7 11 29.95 1014 10 16 0.00 0.00
3:53 am 03:53 Clear 82 27.8 64 17.8 55 55 NE 3 6 29.93 1014 10 16 0.00 0.00
4:53 am 04:53 Clear 82 27.8 64 17.8 55 55 E 8 13 29.93 1014 10 16 0.00 0.00
5:53 am 05:53 Sunny 81 27.2 64 17.8 57 57 E 7 11 29.93 1014 10 16 0.00 0.00
6:53 am 06:53 Sunny 82 27.8 64 17.8 55 55 E 6 9 29.94 1014 10 16 0.00 0.00
7:53 am 07:53 Sunny 84 28.9 63 17.2 49 49 E 7 11 29.94 1014 10 16 0.00 0.00
8:53 am 08:53 Sunny 86 30 62 16.7 45 45 ESE 8 13 29.93 1014 10 16 0.00 0.00
9:53 am 09:53 Sunny 90 32.2 63 17.2 41 41 ESE 12 19 29.92 1013 10 16 0.00 0.00
10:53 am 10:53 Sunny 91 32.8 62 16.7 38 38 E 6 9 29.92 1013 10 16 0.00 0.00
11:53 am 11:53 Sunny 94 34.4 62 16.7 35 35 SE 13 20 29.90 1013 10 16 0.00 0.00
12:53 pm 12:53 Sunny 96 35.6 61 16.1 31 31 ESE 8 13 29.87 1012 10 16 0.00 0.00
1:53 pm 13:53 Sunny 99 37.2 61 16.1 29 29 undefined N/A 29.84 1011 10 16 0.00 0.00
2:53 pm 14:53 Sunny 101 38.3 60 15.6 26 26 E 10 17 29.80 1009 10 16 0.00 0.00
3:53 pm 15:53 Sunny 102 38.9 59 15 24 24 VRB 7 11 29.77 1008 10 16 0.00 0.00
4:53 pm 16:53 Sunny 104 40 57 13.9 21 21 ESE 14 22 29.73 1007 10 16 0.00 0.00
5:53 pm 17:53 Sunny 105 40.6 55 12.8 19 19 SSW 10 17 29.70 1006 10 16 0.00 0.00
6:53 pm 18:53 Sunny 105 40.6 52 11.1 17 17 S 9 15 29.70 1006 10 16 0.00 0.00
7:53 pm 19:53 Sunny 103 39.4 50 10 17 17 SSW 12 19 29.71 1006 10 16 0.00 0.00
8:53 pm 20:53 Clear 102 38.9 50 10 17 17 SSW 10 17 29.72 1007 10 16 0.00 0.00
9:53 pm 21:53 Clear 100 37.8 49 9.4 18 18 SSW 10 17 29.74 1007 10 16 0.00 0.00
10:53 pm 22:53 Clear 99 37.2 48 8.9 18 18 SSW 10 17 29.74 1007 10 16 0.00 0.00
11:53 pm 23:53 Clear 98 36.7 44 6.7 16 16 SSW 10 17 29.74 1007 10 16 0.00 0.00

Powered by AerisWeather